TimeCDT,TemperatureF,Dew PointF,Humidity,Sea Level PressureIn,VisibilityMPH,Wind Direction,Wind SpeedMPH,Gust SpeedMPH,PrecipitationIn,Events,Conditions,WindDirDegrees,DateUTC
12:00 AM,44.6,42.8,93,30.15,15.0,NNW,5.8,-,N/A,,Clear,330,2013-08-03 05:00:00
1:00 AM,47,47,98,30.16,9,Calm,Calm,,,,,,2013-08-03 06:00:00
1:00 AM,46.4,42.8,87,30.16,15.0,NW,5.8,-,N/A,,Clear,310,2013-08-03 06:00:00
2:00 AM,44.6,42.8,93,30.17,15.0,NW,5.8,-,N/A,,Clear,310,2013-08-03 07:00:00
3:00 AM,46.4,44.6,93,30.18,15.0,West,8.1,-,N/A,,Clear,270,2013-08-03 08:00:00
4:00 AM,44.6,42.8,93,30.19,15.0,West,4.6,-,N/A,,Clear,280,2013-08-03 09:00:00
5:00 AM,42.8,41.0,93,30.20,15.0,WNW,4.6,-,N/A,,Clear,300,2013-08-03 10:00:00
6:00 AM,42.8,41.0,93,30.22,15.0,NW,5.8,-,N/A,,Mostly Cloudy,310,2013-08-03 11:00:00
7:00 AM,46,46,100,30.22,9,Calm,Calm,,,,,,2013-08-03 12:00:00
7:00 AM,46.4,44.6,93,30.23,15.0,NW,5.8,-,N/A,,Mostly Cloudy,310,2013-08-03 12:00:00
8:00 AM,51.8,50.0,94,30.25,15.0,Calm,Calm,-,N/A,,Mostly Cloudy,0,2013-08-03 13:00:00
9:00 AM,59.0,51.8,77,30.25,15.0,ENE,2.3,-,N/A,,Scattered Clouds,70,2013-08-03 14:00:00
10:00 AM,62.6,46.4,55,30.26,15.0,ENE,3.5,-,N/A,,Partly Cloudy,60,2013-08-03 15:00:00
11:00 AM,66.2,46.4,49,30.27,15.0,Variable,2.3,-,N/A,,Partly Cloudy,0,2013-08-03 16:00:00
12:00 PM,68.0,48.2,49,30.27,15.0,NNE,5.8,-,N/A,,Scattered Clouds,20,2013-08-03 17:00:00
1:00 PM,69,51,42,30.26,9,Calm,Calm,,,,,,2013-08-03 18:00:00
1:00 PM,68.0,48.2,49,30.27,15.0,North,2.3,-,N/A,,Mostly Cloudy,360,2013-08-03 18:00:00
2:00 PM,69.8,48.2,46,30.26,15.0,Calm,Calm,-,N/A,,Mostly Cloudy,0,2013-08-03 19:00:00
3:00 PM,69.8,46.4,43,30.26,15.0,NW,6.9,-,N/A,,Mostly Cloudy,310,2013-08-03 20:00:00
4:00 PM,69.8,50.0,49,30.25,15.0,North,4.6,-,N/A,,Mostly Cloudy,360,2013-08-03 21:00:00
5:00 PM,71.6,50.0,46,30.25,15.0,NNE,3.5,-,N/A,,Mostly Cloudy,30,2013-08-03 22:00:00
6:00 PM,69.8,51.8,53,30.25,15.0,North,3.5,-,N/A,,Mostly Cloudy,360,2013-08-03 23:00:00
7:00 PM,71,55,47,30.23,9,Calm,Calm,,,,,,2013-08-04 00:00:00
7:00 PM,71.6,50.0,46,30.24,15.0,North,5.8,-,N/A,,Scattered Clouds,10,2013-08-04 00:00:00
8:00 PM,68.0,53.6,60,30.23,15.0,NNW,4.6,-,N/A,,Scattered Clouds,330,2013-08-04 01:00:00
9:00 PM,64.4,51.8,64,30.22,15.0,NE,5.8,-,N/A,,Partly Cloudy,50,2013-08-04 02:00:00
10:00 PM,59.0,50.0,72,30.23,15.0,Calm,Calm,-,N/A,,Clear,0,2013-08-04 03:00:00
11:00 PM,59.0,50.0,72,30.23,15.0,SE,3.5,-,N/A,,Clear,140,2013-08-04 04:00:00